User: anonymous   Login
Location: Launois
(49.6535°N, 4.5395°E)
Time: 08:50:54
(UTC+00:00)
Language:

YAOGAN 29 - Orbit

View from above orbital plane
View from above orbital plane
View from above satellite
View from above satellite

Ground track
Ground track

The orbit data is extracted from the following two-line orbital elements,

1 41038U 15069A   24281.20045224  .00002676  00000-0  34399-3 0  9995
2 41038  98.0532 296.2746 0000981 164.4224 195.7019 14.82015497479050
Epoch (UTC): 07 October 2024 04:48:39
Eccentricity: 0.0000981
inclination: 98.0532°
perigee height: 622 km
apogee height: 623 km
right ascension of ascending node: 296.2746°
argument of perigee: 164.4224°
revolutions per day: 14.82015497
mean anomaly at epoch: 195.7019°
orbit number at epoch: 47905

The dashed part of the orbit path shows where the satellite is in the earth's shadow,  

DLR